Location: *
(53.9002°N, 27.5624°E)
Time: 22:06:01
(UTC+00:00)

NOSS 5 (C) - Pass Details

Date: 12 November 2019
Orbit: 376 x 1737 km, 63.3° (Epoch: 08 December)

Event Time Altitude Azimuth Distance (km) Brightness Sun altitude
Rises 15:45:22 0° 225° (SW) 2,762 9.4 -13.0°
Reaches altitude 10° 15:47:48 10° 225° (SW) 1,708 8.2 -13.4°
Maximum altitude 15:51:27 84° 137° (SE) 435 4.2 -13.9°
Enters shadow 15:53:04 26° 51° (NE) 837 5.3 -14.1°
